This demonstration page uses our WeatherBlox Daily Observations layout. Learn more.

Left ArrowRight Arrow

Hourly Observations for May 31, 2021

Temp ( °F °C ) Dew Point ( °F °C ) Humidity (%) Winds ( mph kmh ) Pressure ( in mb ) Visibility ( mi km ) Precip ( " mm )
12:15 am 00:15 Cloudy 54 12.3 52 11.1 92 92 SE 3 6 30.20 1023 10 16 N/A
12:35 am 00:35 Cloudy 54 12.2 52 11 92 92 N N/A 30.20 1023 10 16 N/A
12:55 am 00:55 Cloudy 54 12.1 52 11.1 94 94 N N/A 30.20 1023 10 16 N/A
1:15 am 01:15 Cloudy 54 12.1 52 11.2 94 94 N N/A 30.20 1023 10 16 N/A
1:35 am 01:35 Cloudy 54 12.1 52 11.2 94 94 N N/A 30.20 1023 10 16 N/A
1:55 am 01:55 Cloudy 54 12.1 52 11.2 94 94 N N/A 30.20 1023 10 16 N/A
2:15 am 02:15 Cloudy 54 12.1 52 11.3 95 95 N N/A 30.20 1023 10 16 N/A
2:35 am 02:35 Cloudy 54 12.1 53 11.5 96 96 N N/A 30.20 1023 10 16 N/A
2:55 am 02:55 Cloudy 54 12 53 11.4 96 96 N N/A 30.21 1023 10 16 N/A
3:15 am 03:15 Cloudy 54 12 52 11.2 95 95 N N/A 30.20 1023 10 16 N/A
3:35 am 03:35 Cloudy 53 11.8 52 11.2 96 96 N N/A 30.20 1023 10 16 N/A
3:55 am 03:55 Cloudy 53 11.5 52 11 97 97 N N/A 30.20 1023 10 16 N/A
4:15 am 04:15 Cloudy 53 11.5 52 11 97 97 N N/A 30.21 1023 10 16 N/A
4:35 am 04:35 Cloudy 53 11.6 52 11 96 96 N N/A 30.22 1023 10 16 N/A
4:55 am 04:55 Cloudy 53 11.7 52 11 96 96 N N/A 30.22 1023 10 16 N/A
5:15 am 05:15 Cloudy 53 11.7 52 11 96 96 N N/A 30.22 1023 10 16 N/A
5:35 am 05:35 Cloudy 53 11.6 52 11 96 96 N N/A 30.22 1023 10 16 N/A
5:55 am 05:55 Cloudy 53 11.6 52 11 96 96 N N/A 30.22 1023 10 16 N/A
6:15 am 06:15 Cloudy 53 11.6 52 11 96 96 N 3 6 30.22 1023 7 11 N/A
6:35 am 06:35 Cloudy 53 11.7 52 11.1 96 96 N N/A 30.23 1024 7 11 N/A
6:55 am 06:55 Cloudy 53 11.8 52 11.2 96 96 N 3 6 30.23 1024 7 11 N/A
7:15 am 07:15 Cloudy 53 11.8 52 11.2 96 96 N 3 6 30.23 1024 7 11 N/A
7:35 am 07:35 Partly Cloudy 54 12 52 11.1 94 94 N 6 9 30.24 1024 10 16 N/A
7:55 am 07:55 Sunny 54 12 52 11.1 94 94 NNE 6 9 30.24 1024 10 16 N/A
8:15 am 08:15 Sunny 54 12.2 52 11.2 94 94 NNE 3 6 30.23 1024 10 16 N/A
8:35 am 08:35 Partly Cloudy 55 12.6 52 11.2 91 91 N 6 9 30.24 1024 10 16 N/A
8:55 am 08:55 Partly Cloudy 55 12.7 52 11.2 91 91 NNE 6 9 30.24 1024 10 16 N/A
9:15 am 09:15 Mostly Cloudy 56 13.1 53 11.4 90 90 NE 5 7 30.24 1024 10 16 N/A
9:35 am 09:35 Mostly Cloudy 56 13.5 53 11.5 88 88 NNE 6 9 30.22 1023 10 16 N/A
9:55 am 09:55 Mostly Cloudy 57 13.7 53 11.5 87 87 NNE 3 6 30.23 1024 10 16 N/A
10:15 am 10:15 Cloudy 57 14.1 53 11.7 86 86 NNE 3 6 30.23 1024 10 16 N/A
10:35 am 10:35 Mostly Cloudy 58 14.5 53 11.8 84 84 N N/A 30.21 1023 10 16 N/A
10:55 am 10:55 Mostly Cloudy 59 15.1 54 12.1 82 82 N N/A 30.21 1023 10 16 N/A
11:15 am 11:15 Mostly Cloudy 60 15.6 53 11.5 77 77 NE 5 7 30.20 1023 10 16 N/A
11:35 am 11:35 Mostly Cloudy 61 16.3 54 12.1 76 76 NE 5 7 30.20 1023 10 16 N/A
11:55 am 11:55 Mostly Cloudy 62 16.7 55 12.7 77 77 N N/A 30.19 1022 10 16 N/A
12:15 pm 12:15 Mostly Cloudy 63 17 55 12.8 76 76 NNE 5 7 30.18 1022 10 16 N/A
12:35 pm 12:35 Mostly Cloudy 63 17 55 12.6 75 75 NE 6 9 30.18 1022 10 16 N/A
12:55 pm 12:55 Mostly Cloudy 65 18.2 55 12.8 71 71 ESE 9 15 30.16 1021 10 16 N/A
1:15 pm 13:15 Mostly Cloudy 65 18.4 55 12.9 70 70 E 7 11 30.16 1021 10 16 N/A
1:35 pm 13:35 Mostly Cloudy 65 18.6 54 12.2 67 67 N N/A 30.17 1022 10 16 N/A
1:55 pm 13:55 Mostly Cloudy 67 19.6 56 13.1 66 66 SE 9 15 30.16 1021 10 16 N/A
2:15 pm 14:15 Partly Cloudy 66 19.1 54 12.2 64 64 E 8 13 30.16 1021 10 16 N/A
2:35 pm 14:35 Partly Cloudy 67 19.4 54 12.2 63 63 E 5 7 30.15 1021 10 16 N/A
2:55 pm 14:55 Partly Cloudy 68 19.8 54 12.4 63 63 E 7 11 30.14 1021 10 16 N/A
3:15 pm 15:15 Partly Cloudy 68 19.9 55 12.5 63 63 E 9 15 30.13 1020 10 16 N/A
3:35 pm 15:35 Partly Cloudy 68 20 53 11.9 60 60 ESE 8 13 30.13 1020 10 16 N/A
3:55 pm 15:55 Partly Cloudy 69 20.4 53 11.5 57 57 E 9 15 30.12 1020 10 16 N/A
4:15 pm 16:15 Partly Cloudy 69 20.6 53 11.7 57 57 E 6 9 30.13 1020 10 16 N/A
4:35 pm 16:35 Partly Cloudy 69 20.6 52 11.1 55 55 E 9 15 30.13 1020 10 16 N/A
4:55 pm 16:55 Partly Cloudy 68 20.1 51 10.6 55 55 ENE 8 13 30.13 1020 10 16 N/A
5:15 pm 17:15 Partly Cloudy 69 20.3 51 10.6 54 54 ENE 7 11 30.11 1020 10 16 N/A
5:35 pm 17:35 Partly Cloudy 69 20.6 50 10.1 51 51 E 8 13 30.11 1020 10 16 N/A
5:55 pm 17:55 Partly Cloudy 69 20.6 51 10.6 53 53 E 10 17 30.11 1020 10 16 N/A
6:15 pm 18:15 Partly Cloudy 68 20.1 50 9.8 52 52 ENE 10 17 30.12 1020 10 16 N/A
6:35 pm 18:35 Sunny 68 20.2 48 9.1 49 49 E 10 17 30.12 1020 10 16 N/A
6:55 pm 18:55 Sunny 68 20 49 9.7 52 52 E 8 13 30.12 1020 10 16 N/A
7:15 pm 19:15 Sunny 67 19.7 50 10.2 54 54 ESE 9 15 30.12 1020 10 16 N/A
7:35 pm 19:35 Sunny 68 20 50 10.1 53 53 ESE 8 13 30.12 1020 10 16 N/A
7:55 pm 19:55 Sunny 67 19.6 50 9.8 53 53 ESE 8 13 30.12 1020 10 16 N/A
8:15 pm 20:15 Sunny 66 19 51 10.4 58 58 ESE 9 15 30.13 1020 10 16 N/A
8:35 pm 20:35 Sunny 65 18.1 52 11.1 64 64 SE 6 9 30.14 1021 10 16 N/A
8:55 pm 20:55 Sunny 63 17.4 53 11.5 68 68 N N/A 30.16 1021 10 16 N/A
9:15 pm 21:15 Clear 62 16.9 53 11.4 70 70 SE 5 7 30.16 1021 10 16 N/A
9:35 pm 21:35 Clear 61 16.1 52 11.1 72 72 SSE 6 9 30.17 1022 10 16 N/A
9:55 pm 21:55 Clear 61 16 52 11 72 72 SSE 5 7 30.18 1022 10 16 N/A
10:15 pm 22:15 Clear 59 15.1 51 10.7 75 75 S 5 7 30.19 1022 10 16 N/A
10:35 pm 22:35 Clear 60 15.3 52 11 76 76 S 3 6 30.19 1022 10 16 N/A
10:55 pm 22:55 Clear 59 15 52 11 77 77 N N/A 30.19 1022 10 16 N/A
11:15 pm 23:15 Clear 58 14.7 52 11.2 80 80 N N/A 30.19 1022 10 16 N/A
11:35 pm 23:35 Clear 57 13.8 52 11.2 84 84 N N/A 30.20 1023 10 16 N/A
11:55 pm 23:55 Clear 57 14.1 53 11.5 84 84 N N/A 30.20 1023 10 16 N/A

Powered by AerisWeather